User: anonymous   Login
Location: Oshawa
(43.9000°N, 78.8670°W)
Time: 02:43:44
(UTC-05:00)
Language:

CZ-4C R/B - Orbit

View from above orbital plane
View from above orbital plane
View from above satellite
View from above satellite

Ground track
Ground track

The orbit data is extracted from the following two-line orbital elements,

1 32290U 07055B   17056.23580537  .00005341  00000-0  15284-3 0  9991
2 32290  97.5247 160.4546 0068220 169.8449 190.4191 15.34068016514657
Epoch (UTC): 25 February 2017 05:39:33
Eccentricity: 0.0068220
inclination: 97.5247°
perigee height: 417 km
apogee height: 510 km
right ascension of ascending node: 160.4546°
argument of perigee: 169.8449°
revolutions per day: 15.34068016
mean anomaly at epoch: 190.4191°
orbit number at epoch: 51465

The dashed part of the orbit path shows where the satellite is in the earth's shadow,  

DLR